Location: ??
(35.4627°N, 139.3695°E)
Time: 15:09:35
(UTC+00:00)

Cosmos 1937 Rocket - Pass Details

Date: 25 November 2020
Orbit: 745 x 781 km, 74.0° (Epoch: 20 January)

Event Time Altitude Azimuth Distance (km) Brightness Sun altitude
Rises 20:52:30 0° 206° (SSW) 3,172 6.6 -7.6°
Reaches altitude 10° 20:54:52 10° 210° (SSW) 2,253 5.8 -7.1°
Maximum altitude 20:59:53 59° 289° (WNW) 866 3.5 -6.2°
Drops below altitude 10° 21:04:59 10° 9° (N) 2,280 5.8 -5.2°
Sets 21:07:24 0° 14° (NNE) 3,213 6.6 -4.8°
